Alliance, NE

3:49 PM MDT on May 28, 2017 (GMT -0600)
Alliance Municipal

Weather History for KAIA - June, 2014

Change the Weather History Date:

Thursday, June 19, 2014

  Actual Average Record
Temperature  
Mean Temperature 61 °F 66 °F  
Max Temperature 76 °F 81 °F 100 °F (1910)
Min Temperature 45 °F 51 °F 33 °F (1912)
Degree Days  
Heating Degree Days 4 2  
Month to date heating degree days 96 77  
Since 1 June heating degree days 96 77  
Since 1 July heating degree days 7515 7292  
Cooling Degree Days 0 3  
Month to date cooling degree days 11 39  
Year to date cooling degree days 25 49  
Since 1 June cooling degree days 11 39  
Growing Degree Days 12 (Base 50)    
Moisture  
Dew Point 45 °F    
Average Humidity 60    
Maximum Humidity 93    
Minimum Humidity 27    
Precipitation  
Precipitation 0.02 in 0.08 in 0.95 in (1991)
Month to date precipitation 3.96 1.93  
Year to date precipitation 11.46 7.44  
Sea Level Pressure  
Sea Level Pressure 29.96 in    
Wind  
Wind Speed 13 mph (WSW)    
Max Wind Speed 29 mph    
Max Gust Speed 40 mph    
Visibility 9 miles    
Events Rain    
T = Trace of Precipitation, MM = Missing Value Source: NWS Daily Summary

Daily Weather History Graph

Daily Weather History Graph

Search for Another Location

Airport or City:

Trip Planner

Search our weather history database for the weather conditions in past years. The results will help you decide how hot, cold, wet, or windy it might be!

Date:

Astronomy

Jun. 19, 2014 Rise Set
Actual Time 5:15 AM MDT 8:30 PM MDT
Civil Twilight 4:40 AM MDT 9:04 PM MDT
Nautical Twilight 3:56 AM MDT 9:49 PM MDT
Astronomical Twilight 3:02 AM MDT 10:43 PM MDT
Moon 12:28 AM MDT (6/19) 12:55 PM MDT (6/19)
Length of Visible Light 16h 23m
Length of Day
15h 14m
Waning Gibbous, 50% of the Moon is Illuminated
Jun 19
Waning Gibbous
Jun 19
Last Quarter
Jun 27
New
Jul 5
First Quarter
Jul 12
Full

Hourly Weather History & Observations

Time (MDT) Temp. Dew Point Humidity Pressure Visibility Wind Dir Wind Speed Gust Speed Precip Events Conditions
12:44 AM 53.1 °F 52.0 °F 96% 30.04 in 2.0 mi Calm Calm - 0.17 in Rain Rain
12:53 AM 53.6 °F 51.8 °F 94% 30.04 in 3.0 mi WNW 3.5 mph - N/A Rain Rain
1:53 AM 53.1 °F 51.1 °F 93% 29.86 in 10.0 mi Calm Calm - 0.02 in   Clear
2:53 AM 50.0 °F 48.9 °F 96% 29.89 in 10.0 mi SW 5.8 mph - N/A   Clear
3:53 AM 48.2 °F 46.4 °F 93% 30.02 in 10.0 mi SW 10.4 mph - N/A   Clear
4:53 AM 48.0 °F 46.9 °F 96% 29.94 in 10.0 mi WSW 5.8 mph - N/A   Clear
5:53 AM 50.0 °F 48.9 °F 96% 29.95 in 10.0 mi West 6.9 mph - N/A   Mostly Cloudy
6:53 AM 53.1 °F 48.9 °F 86% 29.95 in 10.0 mi WSW 8.1 mph - N/A   Clear
7:53 AM 55.9 °F 46.0 °F 69% 29.96 in 10.0 mi West 16.1 mph 23.0 mph N/A   Clear
8:53 AM 60.1 °F 42.1 °F 51% 29.96 in 10.0 mi West 24.2 mph 32.2 mph N/A   Clear
9:53 AM 62.1 °F 39.0 °F 43% 29.96 in 10.0 mi West 23.0 mph 33.4 mph N/A   Clear
10:02 AM 63.0 °F 39.9 °F 43% 30.04 in 10.0 mi West 24.2 mph 31.1 mph N/A   Partly Cloudy
10:53 AM 64.9 °F 39.9 °F 40% 29.97 in 10.0 mi West 24.2 mph 32.2 mph N/A   Clear
11:53 AM 66.9 °F 37.9 °F 34% 29.98 in 10.0 mi West 23.0 mph 31.1 mph N/A   Clear
12:53 PM 70.0 °F 39.0 °F 32% 29.96 in 10.0 mi West 21.9 mph 33.4 mph N/A   Clear
1:53 PM 72.0 °F 39.0 °F 30% 29.94 in 10.0 mi West 24.2 mph 32.2 mph N/A   Clear
2:53 PM 73.9 °F 41.0 °F 30% 29.94 in 10.0 mi West 19.6 mph 28.8 mph N/A   Clear
3:53 PM 75.0 °F 39.9 °F 28% 29.93 in 10.0 mi West 18.4 mph 25.3 mph N/A   Clear
4:53 PM 75.0 °F 39.0 °F 27% 29.92 in 10.0 mi WSW 19.6 mph 25.3 mph N/A   Clear
5:53 PM 75.0 °F 41.0 °F 29% 29.92 in 10.0 mi West 10.4 mph - N/A   Clear
6:53 PM 73.0 °F 46.0 °F 38% 29.91 in 10.0 mi WSW 9.2 mph - N/A   Clear
7:53 PM 68.0 °F 53.1 °F 59% 29.93 in 10.0 mi Variable 3.5 mph - N/A   Clear
8:53 PM 62.1 °F 46.9 °F 58% 29.95 in 10.0 mi Calm Calm - N/A   Clear
9:53 PM 57.9 °F 48.0 °F 70% 29.97 in 10.0 mi SSW 3.5 mph - N/A   Clear
10:53 PM 54.0 °F 46.9 °F 77% 29.97 in 10.0 mi South 6.9 mph - N/A   Clear
11:53 PM 52.0 °F 46.0 °F 80% 29.96 in 10.0 mi SSW 6.9 mph - N/A   Clear